Torna al catalogo

FREGAT R/B

LostMEO
NORAD 38859·ROCKET BODY·🇷🇺 Russia

Lanciato Oct 12, 2012 da Guiana Space Centre

Loading…

Prossimi Passaggi (prossime 24 ore)

TLE

ObsoletoSource: Space-Track

Epoca: Jul 31, 2026, 23:15 UTC

1 38859U 12055C   26212.96901288  .00000003  00000-0  00000-0 0  9995
2 38859  55.6985 107.0329 0004636 354.9278   5.1360  1.66707153 84027

Traccia FREGAT R/B in tempo reale con AllMySat

Download on the App Store